Le Mars, IA

9:13 PM CST on November 21, 2019 (GMT -0600)
Le Mars Municipal

Weather History for KLRJ - September, 2019

Change the Weather History Date:

Thursday, September 12, 2019

  Actual Average Record
Temperature  
Mean Temperature 68 °F -  
Max Temperature 77 °F 78 °F 95 °F (1998)
Min Temperature 60 °F 54 °F 36 °F (1975)
Cooling Degree Days 4    
Growing Degree Days 18 (Base 50)    
Moisture  
Dew Point 65 °F    
Average Humidity 85    
Maximum Humidity 100    
Minimum Humidity 54    
Precipitation  
Precipitation 0.60 in - - ()
Sea Level Pressure  
Sea Level Pressure 29.87 in    
Wind  
Wind Speed 11 mph (SSW)    
Max Wind Speed 18 mph    
Max Gust Speed 29 mph    
Visibility 10 miles    
Events Rain    
Averages and records for this station are not official NWS values.
T = Trace of Precipitation, MM = Missing Value Source: NWS Daily Summary

Daily Weather History Graph

Daily Weather History Graph

Search for Another Location

Airport or City:

Astronomy

Sep. 12, 2019 Rise Set
Actual Time 7:01 AM CDT 7:40 PM CDT
Civil Twilight 6:32 AM CDT 8:08 PM CDT
Nautical Twilight 5:58 AM CDT 8:42 PM CDT
Astronomical Twilight 5:23 AM CDT 9:17 PM CDT
Moon 7:28 PM CDT (9/12) 5:17 AM CDT (9/12)
Length of Visible Light 13h 36m
Length of Day
12h 39m
Waxing Gibbous, 98% of the Moon is Illuminated
Sep 12
Waxing Gibbous
Sep 13
Full
Sep 21
Last Quarter
Sep 28
New
Oct 5
First Quarter

Hourly Weather History & Observations

Time (CDT) Temp. Dew Point Humidity Pressure Visibility Wind Dir Wind Speed Gust Speed Precip Events Conditions
12:15 AM 71.6 °F 71.6 °F 100% 29.86 in - ESE 13.8 mph - N/A   Unknown
12:35 AM 71.6 °F 71.6 °F 100% 29.86 in 10.0 mi ESE 11.5 mph 18.4 mph N/A   Clear
12:55 AM 71.6 °F 71.6 °F 100% 29.87 in 10.0 mi SE 6.9 mph 13.8 mph N/A   Clear
1:15 AM 71.6 °F 71.6 °F 100% 29.85 in 10.0 mi ESE 11.5 mph - N/A   Clear
1:35 AM 73.4 °F 71.6 °F 94% 29.85 in 10.0 mi SE 9.2 mph - N/A   Clear
1:55 AM 73.4 °F 71.6 °F 94% 29.83 in 10.0 mi SE 15.0 mph - N/A   Clear
2:55 AM 73.4 °F 71.6 °F 94% 29.79 in 10.0 mi SSE 18.4 mph - N/A   Mostly Cloudy
3:15 AM 69.8 °F 68.0 °F 94% 29.88 in 5.0 mi West 15.0 mph 28.8 mph N/A Rain Rain
3:35 AM 68.0 °F 68.0 °F 100% 29.88 in 2.5 mi Calm Calm 13.8 mph N/A Rain Rain
3:55 AM 66.2 °F 66.2 °F 100% 29.86 in 3.0 mi WSW 3.5 mph - 0.55 in Rain Light Rain
4:15 AM 66.2 °F 66.2 °F 100% 29.86 in 2.0 mi SE 5.8 mph - N/A Rain Heavy Rain
4:35 AM - - N/A% 29.86 in - Calm Calm - N/A   Unknown
4:55 AM 66.2 °F 66.2 °F 100% 29.86 in 8.0 mi SE 8.1 mph - 0.05 in   Unknown
5:15 AM 66.2 °F 66.2 °F 100% 29.85 in 9.0 mi SE 11.5 mph - N/A Rain Light Rain
5:35 AM 66.2 °F 66.2 °F 100% 29.83 in 10.0 mi SE 12.7 mph - N/A   Overcast
5:55 AM 68.0 °F 66.2 °F 94% 29.82 in 10.0 mi ESE 10.4 mph 17.3 mph N/A   Mostly Cloudy
6:15 AM 68.0 °F 68.0 °F 100% 29.82 in 10.0 mi SE 11.5 mph - N/A   Mostly Cloudy
6:35 AM 68.0 °F 68.0 °F 100% 29.84 in 10.0 mi SSE 9.2 mph - N/A   Mostly Cloudy
6:55 AM 68.0 °F 68.0 °F 100% 29.85 in 10.0 mi SSE 13.8 mph - N/A   Partly Cloudy
7:15 AM 68.0 °F 68.0 °F 100% 29.82 in 10.0 mi SE 12.7 mph 19.6 mph N/A   Unknown
7:35 AM 68.0 °F 68.0 °F 100% 29.83 in 10.0 mi SE 11.5 mph - N/A   Clear
7:55 AM 68.0 °F 68.0 °F 100% 29.84 in 10.0 mi SE 12.7 mph 18.4 mph N/A   Clear
8:15 AM 68.0 °F 68.0 °F 100% 29.83 in 10.0 mi SE 15.0 mph - N/A   Clear
8:35 AM 69.8 °F 69.8 °F 100% 29.83 in 10.0 mi SSE 11.5 mph 19.6 mph N/A   Clear
8:55 AM 69.8 °F 69.8 °F 100% 29.83 in 10.0 mi SSE 11.5 mph - N/A   Clear
9:15 AM 69.8 °F 69.8 °F 100% 29.83 in 10.0 mi SSE 10.4 mph - N/A   Clear
9:35 AM 71.6 °F 71.6 °F 100% 29.82 in 10.0 mi SE 13.8 mph - N/A   Clear
9:55 AM 73.4 °F 71.6 °F 94% 29.83 in 10.0 mi South 9.2 mph 16.1 mph N/A   Scattered Clouds
10:15 AM 73.4 °F 73.4 °F 100% 29.83 in 10.0 mi South 11.5 mph 17.3 mph N/A   Overcast
10:35 AM 73.4 °F 73.4 °F 100% 29.83 in 10.0 mi South 11.5 mph 18.4 mph N/A   Overcast
10:55 AM 73.4 °F 73.4 °F 100% 29.83 in 10.0 mi SSW 11.5 mph 18.4 mph N/A   Overcast
11:15 AM 75.2 °F 73.4 °F 94% 29.84 in 10.0 mi SSW 10.4 mph 16.1 mph N/A   Overcast
11:35 AM 75.2 °F 73.4 °F 94% 29.84 in 10.0 mi SW 9.2 mph 17.3 mph N/A   Overcast
11:55 AM 75.2 °F 71.6 °F 89% 29.83 in 10.0 mi WSW 11.5 mph 20.7 mph N/A   Overcast
12:15 PM 73.4 °F 69.8 °F 88% 29.85 in 10.0 mi West 18.4 mph - N/A   Mostly Cloudy
12:35 PM 71.6 °F 66.2 °F 83% 29.87 in 10.0 mi WSW 10.4 mph 25.3 mph N/A   Overcast
12:55 PM 71.6 °F 68.0 °F 88% 29.87 in 10.0 mi SSW 8.1 mph 16.1 mph N/A   Overcast
1:15 PM 73.4 °F 68.0 °F 83% 29.86 in 10.0 mi WSW 9.2 mph 18.4 mph N/A   Overcast
1:35 PM 73.4 °F 66.2 °F 78% 29.87 in 10.0 mi West 13.8 mph 24.2 mph N/A   Overcast
1:55 PM 75.2 °F 68.0 °F 78% 29.86 in 10.0 mi Variable 6.9 mph - N/A   Mostly Cloudy
2:15 PM 75.2 °F 68.0 °F 78% 29.86 in 10.0 mi SSW 6.9 mph - N/A   Clear
2:35 PM 77.0 °F 66.2 °F 69% 29.86 in 10.0 mi WSW 9.2 mph 15.0 mph N/A   Scattered Clouds
2:55 PM 77.0 °F 66.2 °F 69% 29.86 in 10.0 mi SW 13.8 mph 23.0 mph N/A   Scattered Clouds
3:15 PM 77.0 °F 64.4 °F 65% 29.86 in 10.0 mi SW 18.4 mph - N/A   Scattered Clouds
3:35 PM 77.0 °F 59.0 °F 54% 29.87 in 10.0 mi West 15.0 mph 21.9 mph N/A   Scattered Clouds
3:55 PM 75.2 °F 59.0 °F 57% 29.87 in 10.0 mi WSW 13.8 mph 23.0 mph N/A   Clear
4:15 PM 75.2 °F 59.0 °F 57% 29.87 in 10.0 mi WSW 16.1 mph 23.0 mph N/A   Clear
4:35 PM 73.4 °F 59.0 °F 61% 29.87 in 10.0 mi WSW 10.4 mph 20.7 mph N/A   Scattered Clouds
4:55 PM 73.4 °F 57.2 °F 57% 29.87 in 10.0 mi WSW 18.4 mph 26.5 mph N/A   Mostly Cloudy
5:15 PM 73.4 °F 59.0 °F 61% 29.87 in 10.0 mi West 11.5 mph 20.7 mph N/A   Mostly Cloudy
5:35 PM 73.4 °F 59.0 °F 61% 29.88 in 10.0 mi WSW 11.5 mph 18.4 mph N/A   Scattered Clouds
5:55 PM 73.4 °F 59.0 °F 61% 29.89 in 10.0 mi WSW 10.4 mph 16.1 mph N/A   Partly Cloudy
6:15 PM 73.4 °F 59.0 °F 61% 29.89 in 10.0 mi WSW 9.2 mph 17.3 mph N/A   Clear
6:35 PM 71.6 °F 59.0 °F 64% 29.90 in 10.0 mi SW 8.1 mph 15.0 mph N/A   Clear
6:55 PM 71.6 °F 59.0 °F 64% 29.91 in 10.0 mi SW 4.6 mph 11.5 mph N/A   Clear
7:15 PM 69.8 °F 59.0 °F 68% 29.91 in 10.0 mi SW 4.6 mph - N/A   Clear
7:35 PM 68.0 °F 59.0 °F 73% 29.91 in 10.0 mi SSW 5.8 mph - N/A   Clear
7:55 PM 66.2 °F 60.8 °F 83% 29.91 in - SSW 5.8 mph - N/A   Clear
8:15 PM 64.4 °F 60.8 °F 88% 29.91 in 10.0 mi South 5.8 mph - N/A   Clear
8:35 PM 64.4 °F 60.8 °F 88% 29.91 in 10.0 mi SSW 10.4 mph - N/A   Mostly Cloudy
8:55 PM 68.0 °F 59.0 °F 73% 29.94 in 10.0 mi West 17.3 mph - N/A   Overcast
9:15 PM 66.2 °F 57.2 °F 73% 29.95 in 10.0 mi West 15.0 mph - N/A   Mostly Cloudy
9:35 PM 64.4 °F 55.4 °F 73% 29.96 in 10.0 mi West 12.7 mph 21.9 mph N/A   Clear
9:55 PM 62.6 °F 55.4 °F 77% 29.96 in 10.0 mi West 10.4 mph - N/A   Clear
10:15 PM 62.6 °F 55.4 °F 77% 29.97 in 10.0 mi WSW 10.4 mph - N/A   Clear
10:35 PM 60.8 °F 55.4 °F 82% 29.98 in 10.0 mi WSW 9.2 mph 15.0 mph N/A   Clear
10:55 PM 60.8 °F 57.2 °F 88% 29.98 in 10.0 mi WSW 9.2 mph 15.0 mph N/A   Mostly Cloudy
11:15 PM 62.6 °F 57.2 °F 82% 29.98 in 10.0 mi West 18.4 mph 25.3 mph N/A   Overcast
11:35 PM 62.6 °F 59.0 °F 88% 29.98 in 10.0 mi West 16.1 mph 21.9 mph N/A   Overcast
11:55 PM 62.6 °F 59.0 °F 88% 29.98 in 10.0 mi West 18.4 mph 25.3 mph N/A   Overcast